Weather History for Cedar City, UT

Change the Weather History Date:

Saturday, August 23, 2014

  Actual Average Record
Temperature  
Mean Temperature 67 °F 70 °F  
Max Temperature 80 °F 86 °F 95 °F (2011)
Min Temperature 53 °F 54 °F 36 °F (1968)
Degree Days  
Heating Degree Days 0 0  
Month to date heating degree days 3 0  
Since 1 June heating degree days 30 79  
Since 1 July heating degree days 3 3  
Cooling Degree Days 2 5  
Month to date cooling degree days 105 160  
Year to date cooling degree days 525 513  
Since 1 June cooling degree days 500 505  
Growing Degree Days 16 (Base 50)    
Moisture  
Dew Point 48 °F    
Average Humidity 57    
Maximum Humidity 86    
Minimum Humidity 28    
Precipitation  
Precipitation 0.00 in 0.03 in 0.79 in (1961)
Month to date precipitation 1.09 0.88  
Year to date precipitation 4.96 7.29  
Sea Level Pressure  
Sea Level Pressure 29.88 in    
Wind  
Wind Speed 7 mph (WSW)    
Max Wind Speed 17 mph    
Max Gust Speed 24 mph    
Visibility 10 miles    
Events      
T = Trace of Precipitation, MM = Missing Value Source: NWS Daily Summary

Daily Weather History Graph

Daily Weather History Graph

Search for Another Location

Airport:

Trip Planner

Search our weather history database for the weather conditions in past years. The results will help you decide how hot, cold, wet, or windy it might be!

Date:

Astronomy

Aug. 23, 2014 Rise Set
Actual Time 6:54 AM MDT 8:14 PM MDT
Civil Twilight 6:27 AM MDT 8:41 PM MDT
Nautical Twilight 5:54 AM MDT 9:14 PM MDT
Astronomical Twilight 5:20 AM MDT 9:48 PM MDT
Moon 5:15 AM MDT (8/23) 7:01 PM MDT (8/23)
Length of Visible Light 14h 14m
Length of Day
13h 19m
Waning Crescent, 3% of the Moon is Illuminated
Aug 23
Waning Crescent
Aug 25
New
Sep 2
First Quarter
Sep 8
Full
Sep 15
Last Quarter

Hourly Weather History & Observations

Time (MDT) Temp. Dew Point Humidity Pressure Visibility Wind Dir Wind Speed Gust Speed Precip Events Conditions
12:51 AM 60.8 °F 51.8 °F 72% 30.09 in 10.0 mi North 16.1 mph 24.2 mph N/A   Mostly Cloudy
12:53 AM 60.1 °F 51.1 °F 72% 29.88 in 10.0 mi NNE 12.7 mph 24.2 mph N/A   Mostly Cloudy
1:53 AM 59.0 °F 50.0 °F 72% 29.85 in 10.0 mi Calm Calm - N/A   Partly Cloudy
3:53 AM 57.9 °F 50.0 °F 75% 29.84 in 10.0 mi Calm Calm - N/A   Partly Cloudy
6:53 AM 55.9 °F 48.9 °F 77% 29.87 in 10.0 mi Calm Calm - N/A   Clear
7:53 AM 60.1 °F 50.0 °F 69% 29.88 in 10.0 mi SW 4.6 mph - N/A   Clear
8:53 AM 64.0 °F 50.0 °F 60% 29.89 in 10.0 mi SW 9.2 mph - N/A   Clear
9:53 AM 66.0 °F 50.0 °F 56% 29.90 in 10.0 mi SW 9.2 mph - N/A   Partly Cloudy
10:53 AM 69.1 °F 48.0 °F 47% 29.90 in 10.0 mi SW 8.1 mph - N/A   Overcast
11:53 AM 71.1 °F 48.0 °F 44% 29.89 in 10.0 mi SW 11.5 mph - N/A   Mostly Cloudy
12:53 PM 73.9 °F 48.0 °F 40% 29.89 in 10.0 mi Variable 5.8 mph - N/A   Mostly Cloudy
1:53 PM 73.9 °F 46.9 °F 38% 29.88 in 10.0 mi SW 10.4 mph 18.4 mph N/A   Scattered Clouds
3:53 PM 78.1 °F 43.0 °F 29% 29.83 in 10.0 mi WSW 11.5 mph 21.9 mph N/A   Clear
4:53 PM 78.1 °F 43.0 °F 29% 29.83 in 10.0 mi SSW 13.8 mph 20.7 mph N/A   Scattered Clouds
5:53 PM 77.0 °F 42.1 °F 29% 29.83 in 10.0 mi SSW 12.7 mph 21.9 mph N/A   Mostly Cloudy
6:53 PM 75.9 °F 42.1 °F 30% 29.83 in 10.0 mi SSW 9.2 mph - N/A   Mostly Cloudy
7:53 PM 70.0 °F 46.0 °F 42% 29.85 in 10.0 mi North 4.6 mph - N/A   Scattered Clouds
9:53 PM 66.0 °F 46.0 °F 48% 29.88 in 10.0 mi NNE 4.6 mph - N/A   Overcast
10:53 PM 63.0 °F 48.0 °F 58% 29.89 in 10.0 mi Calm Calm - N/A   Overcast
11:53 PM 60.1 °F 48.9 °F 67% 29.89 in 10.0 mi Calm Calm - N/A   Scattered Clouds